Temperature
18 20 19 19 19 19 17 16 15 16 16 16 15 15 17 17 17 16 16 16 15 15 14 14 14 13 13 12 12 12 12 11 11 11 11 11 11 11 11 11 11 11 12 12
20 20 20 20 19 18 18 18 17 17 17 16 17 17 17 17 17 16 16 16 15 15 15 14 14 13 13 13 12 12 12 11 11 11 11 11 11 11 11 11 11 11 12 12
17 19 20 19 19 18 18 18 17 17 16 16 15 16 17 17 17 17 16 16 16 15 15 14 14 14 13 13 12 12 12 11 11 11 11 11 11 11 11 11 11 11 11 11
16 19 19 19 19 19 19 19 18 18 17 17 18 19 19 18 18 17 16 16 16 15 15 14 14 14 13 13 12 12 12 11 11 11 11 11 11 11 11 11 11 11 11 11
15 18 18 19 20 20 19 19 18 18 17 18 19 18 18 18 18 17 17 16 16 15 15 15 14 14 13 13 12 12 12 11 11 11 11 11 11 11 11 11 11 11 11 11
16 18 19 19 21 21 20 19 19 19 18 18 17 14 16 19 18 18 17 17 16 16 15 15 14 14 13 13 12 12 12 11 11 11 11 11 11 11 11 11 11 11 11 11
16 17 17 18 21 21 19 19 21 21 20 19 18 18 20 19 18 18 17 17 16 16 15 15 15 14 14 13 13 12 12 11 11 11 11 11 11 11 11 11 11 11 11 11
14 16 17 20 20 18 19 22 22 22 21 21 21 20 20 19 19 18 17 17 17 16 16 15 15 14 14 13 13 12 12 12 11 11 11 11 11 11 11 11 11 11 11 11
15 17 20 22 22 24 23 23 23 22 22 21 21 20 20 19 19 18 18 17 17 16 16 16 15 15 14 14 13 13 12 12 12 11 11 11 11 11 11 11 11 11 11 11
17 18 21 23 23 23 23 23 23 22 22 22 21 20 20 19 19 18 18 18 17 17 16 16 16 15 15 14 14 13 13 12 12 12 12 11 11 11 11 11 11 11 11 11
19 18 21 23 23 24 23 23 23 22 22 22 21 20 20 19 19 19 18 18 18 17 17 16 16 16 15 14 14 13 13 13 12 12 12 12 11 11 11 11 11 11 11 11
17 20 19 22 23 23 23 23 22 22 22 21 21 21 20 20 19 19 18 18 18 17 17 17 16 16 15 15 14 14 13 13 13 12 12 12 11 11 11 11 11 11 11 11
18 20 21 22 23 23 23 22 22 22 22 21 21 21 20 20 19 19 19 18 18 18 18 17 17 16 16 15 15 14 14 13 13 13 12 12 12 11 11 11 11 11 11 11
19 20 20 20 21 21 22 22 22 22 21 21 21 20 20 20 19 19 19 19 18 18 18 17 17 16 16 15 15 14 14 14 13 13 12 12 12 12 11 11 11 11 11 11
17 18 18 19 20 20 21 21 21 21 21 20 20 20 20 19 19 19 19 19 18 18 18 17 17 17 16 16 15 15 14 14 13 13 13 12 12 12 12 12 11 11 11 11
15 17 18 18 18 18 19 19 19 19 20 20 20 20 20 19 19 19 19 19 18 18 18 17 17 17 16 16 15 15 15 14 14 13 13 12 12 12 12 12 12 12 12 11
14 14 14 15 15 16 16 17 17 17 18 19 19 19 19 19 19 19 19 19 18 18 18 18 17 17 16 16 16 15 15 14 14 13 13 13 12 12 12 12 12 12 12 12
12 12 12 12 13 14 15 16 16 17 17 17 18 19 19 19 19 19 19 19 18 18 18 18 17 17 16 16 16 15 15 14 14 14 13 13 13 12 12 12 12 12 12 12
11 11 12 12 13 13 14 14 15 15 16 16 17 18 18 18 19 19 19 19 18 18 18 18 17 17 17 16 16 15 15 14 14 14 13 13 13 13 12 12 12 12 12 12
10 10 11 11 12 12 12 13 14 14 15 15 16 17 17 18 18 18 18 18 18 18 18 18 17 17 17 16 16 15 15 14 14 14 13 13 13 13 13 12 12 12 12 12
9 9 9 10 10 10 11 11 12 13 13 14 14 15 15 16 17 17 17 18 18 18 18 18 17 17 17 16 16 15 15 15 14 14 14 13 13 13 13 13 12 12 12 12
8 8 8 8 9 9 9 10 10 11 11 12 12 13 14 15 15 16 16 16 17 17 17 17 17 17 16 16 16 15 15 15 14 14 14 13 13 13 13 13 12 12 12 12
8 7 7 8 8 8 8 9 9 9 9 10 10 11 11 12 13 13 14 15 16 16 16 17 17 17 16 16 16 15 15 15 14 14 14 13 13 13 13 13 13 12 12 12
7 7 7 7 7 7 7 7 7 8 8 8 9 9 10 10 11 12 12 13 14 15 16 16 16 16 16 16 16 15 15 15 14 14 14 13 13 13 13 13 13 12 12 12
6 6 6 6 6 6 6 6 6 7 7 7 8 8 8 8 9 10 10 11 12 14 14 15 15 15 15 15 15 15 15 14 14 14 14 13 13 13 13 13 13 12 12 12
6 6 6 6 6 6 6 5 5 6 6 6 6 6 7 7 8 8 9 10 10 11 12 13 13 14 14 14 14 14 14 14 14 13 13 13 13 13 13 13 12 12 12 12
6 6 6 6 6 6 5 5 5 5 5 5 5 5 5 6 6 7 7 8 9 9 10 11 11 12 12 12 13 13 13 13 13 13 12 12 12 12 12 12 12 12 12 12
Wind_Speed
5 6 6 6 7 7 6 7 7 7 7 9 11 11 10 8 7 6 5 4 4 3 3 3 2 2 0 1 1 2 4 5 6 6 6 7 7 7 8 8 9 8 8 8
2 5 5 4 7 8 7 6 7 6 7 7 8 8 8 8 8 7 6 5 4 3 2 3 2 1 1 1 0 2 3 4 5 6 7 7 7 7 7 8 8 8 8 8
3 3 0 6 9 10 7 7 8 9 9 5 7 10 11 11 10 9 8 6 5 4 3 3 3 3 3 2 1 2 3 3 4 5 6 7 7 7 8 7 8 8 9 9
1 2 4 8 5 8 8 7 8 7 7 11 11 11 10 10 10 9 9 7 6 4 3 3 3 3 4 3 2 2 2 2 4 4 5 6 6 7 6 5 6 6 8 8
3 1 6 7 3 5 5 6 7 9 9 10 6 5 3 8 10 10 10 8 6 5 4 3 4 5 5 3 2 2 1 1 2 3 4 5 6 6 4 4 5 6 6 8
3 0 4 7 4 3 4 5 6 8 10 9 9 6 7 8 9 10 9 7 6 5 4 4 5 6 6 4 3 2 2 1 1 1 2 3 4 4 4 3 4 5 7 7
3 3 7 7 1 5 2 7 5 8 10 12 12 10 7 9 10 10 9 8 7 6 5 5 6 7 6 5 4 4 3 2 0 1 1 2 3 3 3 4 5 5 6 7
5 3 7 5 6 6 10 5 4 7 9 11 10 7 7 11 11 11 10 9 8 6 6 5 7 7 7 6 6 5 3 2 1 1 1 1 3 3 3 4 5 5 5 5
8 8 8 7 10 8 6 6 6 7 8 10 8 8 9 10 11 11 11 10 8 7 7 6 7 8 8 7 6 5 4 3 2 1 0 1 2 2 3 3 3 3 3 3
4 7 7 7 8 6 7 7 7 7 8 10 10 10 11 10 10 10 10 9 8 8 7 7 7 8 8 8 7 6 5 4 3 3 1 0 1 1 2 2 2 1 2 2
4 7 7 6 7 8 7 6 5 5 8 11 12 11 12 11 11 11 10 9 8 9 9 9 8 8 8 8 7 6 5 5 4 4 4 2 1 1 1 2 2 2 1 1
6 7 5 6 6 4 5 6 6 6 6 7 11 12 12 12 12 11 11 10 9 10 10 9 8 9 9 8 8 7 5 5 5 4 4 3 2 1 2 3 3 3 3 3
5 7 5 5 5 2 4 6 6 7 7 7 8 10 12 11 11 11 11 11 12 12 11 10 9 9 9 9 9 8 7 6 5 5 5 4 4 4 3 3 4 4 5 5
8 6 4 5 6 6 5 4 4 4 5 6 6 7 8 9 9 11 13 14 14 12 11 10 10 10 10 10 9 9 8 8 7 6 6 6 5 5 4 4 3 4 5 7
12 8 4 6 8 10 8 6 4 4 4 5 4 6 7 9 11 13 13 13 12 11 11 11 11 11 10 10 10 10 8 6 6 6 6 6 5 5 5 5 4 4 3 4
9 9 10 11 11 11 10 9 7 7 6 6 6 7 8 10 11 11 11 11 11 14 13 12 13 12 10 11 10 9 8 11 9 6 5 5 5 5 5 5 5 5 5 5
9 12 13 13 12 11 10 9 8 8 8 8 8 8 8 8 8 9 10 12 14 15 15 14 14 11 11 12 11 9 8 8 11 7 6 6 6 6 6 5 6 6 6 7
7 7 7 8 9 10 11 11 11 10 9 9 9 7 6 8 10 11 10 10 11 11 12 13 13 11 11 12 11 9 8 8 7 7 6 6 6 6 6 6 7 7 6 5
9 10 10 11 10 9 10 11 12 11 11 11 10 8 7 8 10 10 8 8 11 13 12 12 15 13 12 14 13 9 9 9 8 7 7 8 7 6 6 6 7 7 6 6
9 9 10 11 12 11 12 12 12 12 12 11 11 10 9 9 8 8 8 10 11 10 10 11 13 12 13 13 15 10 10 10 10 8 7 7 7 7 7 7 7 7 7 7
8 9 10 10 11 11 12 12 13 14 14 12 11 11 11 11 9 7 6 9 9 9 9 12 11 10 11 12 15 10 11 10 10 9 9 8 8 8 7 7 7 7 7 7
6 7 8 9 9 10 10 10 12 13 14 14 14 13 13 13 12 9 7 8 8 8 8 8 9 12 14 14 11 11 12 11 10 9 9 9 8 8 8 8 7 7 7 7
4 5 6 7 8 8 9 9 10 11 12 13 13 14 13 11 9 9 10 10 9 10 8 8 11 15 18 13 10 12 12 12 11 10 10 9 9 9 9 9 8 7 7 7
4 5 6 6 7 8 9 9 9 8 9 9 10 11 11 11 10 8 8 14 16 13 7 9 13 15 16 10 10 11 11 11 11 10 10 9 9 9 8 8 8 7 7 8
4 4 5 6 6 6 7 8 8 8 9 8 9 10 9 7 8 11 11 13 17 14 8 8 10 10 9 7 9 10 10 10 10 10 10 9 9 9 9 8 8 8 8 7
4 4 5 5 5 5 4 4 5 6 7 8 8 8 9 9 10 10 10 12 14 15 10 8 7 5 3 3 5 7 7 8 9 9 9 9 9 9 9 9 10 9 8 8
5 5 4 5 5 5 4 4 5 5 6 6 8 8 8 9 9 10 11 10 11 10 10 9 8 7 5 3 3 3 4 5 6 7 7 8 8 8 9 10 9 8 7 7
Wind_Direction
215 207 174 192 198 190 181 189 198 231 220 224 208 203 204 203 200 192 194 201 207 224 253 263 285 306 331 16 11 23 28 22 10 2 3 6 10 10 11 13 16 11 15 18
264 234 203 224 218 204 211 206 211 222 247 232 197 187 192 193 189 190 194 199 202 196 217 238 244 229 161 128 41 42 38 18 9 10 10 9 7 10 14 14 12 19 23 22
285 292 22 273 233 203 211 208 189 212 228 184 179 195 198 196 194 193 193 195 192 193 214 227 219 187 168 168 120 72 46 20 13 13 13 7 10 15 14 13 17 23 21 25
110 59 248 254 252 189 201 226 206 204 198 184 195 200 199 190 187 190 189 189 191 196 212 217 186 162 153 140 116 93 51 16 12 16 12 8 14 14 10 12 18 21 23 25
104 248 283 292 254 166 182 258 218 200 199 197 177 142 227 205 183 183 187 189 193 194 197 186 164 156 140 129 122 113 71 356 355 13 16 13 12 6 6 18 24 24 24 29
106 189 258 261 264 138 99 284 245 191 188 179 144 170 235 208 180 181 184 184 184 183 179 165 165 153 139 148 149 172 212 240 293 358 18 12 7 7 9 24 28 32 36 28
163 234 267 258 184 93 124 251 244 188 183 173 182 203 206 176 178 180 182 187 179 173 178 182 168 153 151 170 193 209 204 194 234 325 351 14 20 19 22 33 39 39 40 28
158 201 265 225 148 182 219 238 221 195 188 188 203 204 179 175 181 180 180 184 178 175 191 189 171 161 169 196 213 207 190 183 207 289 326 49 47 31 33 46 50 41 40 28
185 213 240 207 204 219 193 208 219 199 202 188 187 184 180 183 184 184 184 187 183 182 192 197 188 175 182 207 206 196 188 195 206 209 350 50 71 59 48 48 56 43 45 34
227 263 256 241 244 251 216 219 224 203 191 177 183 184 183 186 187 188 190 190 188 183 194 206 205 200 199 199 193 186 194 204 202 193 210 341 84 92 91 75 65 50 46 29
266 287 306 290 255 250 246 238 226 204 189 186 182 187 187 189 193 195 195 195 188 190 200 210 207 208 209 197 184 184 195 204 200 195 192 193 194 211 189 213 201 189 211 217
245 261 234 261 276 248 230 237 224 206 201 199 190 192 192 196 198 197 198 195 196 200 205 209 204 208 209 198 185 183 194 203 201 197 197 193 194 255 296 257 261 229 211 202
275 283 241 275 320 318 244 246 233 210 202 205 208 200 197 201 202 200 200 197 201 205 206 205 202 209 209 198 189 188 194 199 199 199 200 199 198 203 241 286 279 269 253 238
341 356 5 345 329 327 311 289 255 236 225 211 206 203 203 206 204 203 205 206 206 205 204 202 201 210 208 196 191 195 197 199 195 200 201 202 205 207 207 214 243 266 260 245
360 5 350 334 356 2 357 359 355 317 288 262 231 212 208 209 213 214 212 206 202 203 206 203 205 214 204 193 193 196 195 198 198 200 202 204 207 207 209 213 220 231 243 257
341 8 14 15 10 3 3 2 347 321 303 280 261 242 227 219 220 219 211 198 195 207 210 207 211 214 197 191 193 194 198 203 195 197 203 206 207 209 214 217 220 219 222 226
19 15 7 4 359 355 354 348 337 326 317 302 283 266 246 232 229 227 220 208 206 210 209 207 212 207 194 191 190 194 195 203 202 197 203 206 208 213 216 216 219 222 227 221
20 13 3 356 354 352 350 349 344 337 330 315 305 292 265 240 233 232 228 217 214 220 217 211 207 198 195 193 192 192 191 195 195 201 207 211 215 216 214 216 220 225 231 231
11 10 7 6 1 357 354 350 344 338 335 336 331 313 286 264 250 242 227 210 212 224 228 217 207 198 198 198 191 190 192 195 198 205 208 216 220 220 217 219 223 223 221 217
8 7 6 5 5 5 360 353 348 348 347 345 344 337 326 309 288 261 232 223 225 227 221 210 206 204 203 201 193 193 196 199 202 206 208 212 216 221 220 220 222 224 221 218
2 2 3 2 1 2 1 357 356 353 350 351 350 342 330 322 316 294 257 249 251 237 221 210 208 207 204 201 195 197 199 202 204 206 208 212 216 219 221 223 224 225 224 223
351 353 353 354 354 352 352 355 357 357 357 356 353 349 345 341 336 323 289 269 278 255 228 220 216 212 207 201 198 199 203 205 207 207 208 211 213 217 220 222 224 226 225 223
336 340 343 345 342 337 342 351 354 356 356 355 354 351 344 336 335 334 321 315 311 283 248 229 224 217 209 202 200 201 205 207 208 209 211 212 213 214 218 221 222 223 223 223
329 331 329 331 341 348 345 339 341 344 343 342 346 347 346 343 339 335 321 323 327 310 273 251 235 224 211 206 202 204 207 209 210 211 211 212 213 214 216 217 220 221 221 222
302 311 321 330 335 328 320 326 334 339 341 340 338 339 342 339 331 329 332 336 339 337 318 297 272 245 221 212 208 209 210 211 212 210 211 212 214 216 218 217 218 219 219 219
276 282 284 285 286 292 304 317 323 325 331 333 334 334 336 336 334 338 342 344 349 351 349 342 334 305 270 240 225 220 217 219 220 217 216 215 217 217 219 219 219 219 218 219
278 279 285 295 295 289 291 297 302 307 313 317 319 323 328 333 337 340 343 347 350 353 354 354 356 353 345 329 296 265 242 230 224 222 221 221 220 220 221 220 220 219 216 216
Height
1551 1546 1548 1549 1551 1552 1556 1561 1566 1560 1556 1551 1549 1549 1550 1551 1552 1552 1552 1551 1550 1549 1548 1546 1544 1542 1539 1536 1534 1531 1527 1524 1521 1518 1515 1512 1509 1506 1503 1500 1497 1494 1491 1489
1550 1545 1546 1548 1547 1549 1550 1550 1552 1551 1550 1542 1543 1546 1547 1549 1549 1550 1550 1550 1549 1548 1547 1545 1544 1542 1539 1537 1534 1532 1529 1526 1523 1520 1517 1514 1511 1508 1505 1502 1499 1496 1494 1492
1560 1550 1549 1555 1544 1545 1544 1541 1544 1549 1544 1540 1542 1543 1544 1545 1546 1547 1548 1548 1547 1547 1546 1545 1543 1542 1540 1537 1535 1532 1530 1527 1524 1522 1519 1516 1513 1511 1508 1505 1502 1499 1497 1495
1561 1557 1562 1547 1532 1533 1536 1535 1535 1534 1535 1536 1537 1538 1540 1542 1543 1544 1545 1546 1546 1545 1545 1544 1543 1541 1540 1538 1535 1533 1530 1528 1526 1523 1521 1518 1516 1513 1511 1508 1506 1503 1501 1499
1565 1563 1556 1540 1531 1531 1535 1535 1529 1531 1531 1533 1535 1538 1539 1539 1540 1542 1543 1544 1544 1544 1544 1543 1542 1541 1539 1538 1536 1533 1531 1529 1527 1525 1523 1520 1518 1516 1514 1511 1509 1507 1505 1503
1563 1560 1559 1542 1528 1527 1533 1536 1526 1526 1528 1530 1534 1541 1537 1536 1538 1539 1541 1542 1542 1543 1543 1542 1541 1540 1539 1537 1536 1534 1532 1530 1528 1526 1524 1522 1520 1518 1516 1514 1512 1510 1508 1506
1561 1562 1553 1532 1528 1530 1544 1538 1523 1522 1524 1526 1528 1529 1530 1532 1535 1537 1538 1540 1541 1541 1541 1541 1540 1539 1538 1537 1536 1534 1533 1531 1529 1527 1526 1524 1522 1520 1518 1517 1515 1513 1511 1509
1562 1562 1553 1526 1527 1531 1529 1521 1520 1520 1521 1522 1523 1526 1527 1529 1532 1534 1536 1537 1538 1539 1539 1539 1539 1538 1537 1536 1535 1534 1533 1532 1530 1528 1527 1525 1524 1522 1520 1519 1517 1515 1513 1512
1543 1540 1524 1521 1520 1519 1519 1519 1519 1519 1519 1520 1522 1523 1525 1527 1529 1531 1533 1534 1536 1537 1537 1538 1537 1537 1536 1536 1535 1534 1533 1532 1531 1529 1528 1526 1525 1523 1522 1520 1519 1517 1515 1514
1530 1524 1519 1518 1518 1518 1518 1517 1517 1517 1517 1518 1519 1520 1522 1524 1526 1528 1530 1532 1533 1534 1535 1535 1535 1535 1535 1534 1534 1533 1532 1531 1530 1529 1528 1527 1526 1524 1523 1521 1520 1518 1517 1515
1526 1520 1517 1515 1515 1515 1515 1515 1515 1515 1515 1516 1516 1518 1519 1521 1523 1525 1527 1529 1530 1531 1532 1532 1533 1533 1533 1533 1532 1532 1531 1530 1530 1529 1528 1527 1526 1525 1524 1522 1521 1520 1518 1517
1527 1519 1518 1515 1514 1513 1513 1513 1513 1513 1513 1513 1514 1515 1516 1517 1519 1521 1523 1525 1526 1528 1528 1529 1530 1530 1530 1530 1530 1530 1529 1529 1528 1528 1527 1527 1526 1525 1524 1523 1522 1520 1519 1518
1521 1517 1516 1515 1513 1512 1511 1511 1511 1510 1510 1511 1511 1512 1513 1514 1516 1517 1519 1520 1522 1523 1525 1526 1526 1527 1527 1527 1527 1527 1527 1527 1526 1526 1526 1525 1525 1524 1523 1523 1522 1520 1519 1518
1519 1516 1515 1514 1513 1511 1510 1509 1509 1508 1508 1508 1509 1509 1509 1510 1511 1512 1514 1515 1517 1519 1520 1521 1522 1522 1523 1524 1524 1524 1524 1524 1524 1524 1524 1523 1523 1523 1522 1522 1521 1520 1519 1518
1518 1517 1516 1514 1512 1510 1508 1507 1506 1506 1506 1505 1505 1505 1506 1506 1506 1507 1509 1511 1512 1513 1515 1516 1517 1518 1519 1520 1520 1520 1520 1520 1521 1521 1521 1521 1521 1521 1520 1520 1520 1519 1519 1518
1518 1516 1514 1512 1510 1508 1507 1505 1504 1504 1503 1502 1502 1501 1501 1501 1502 1502 1504 1505 1506 1507 1508 1510 1511 1513 1514 1515 1515 1516 1516 1516 1517 1517 1517 1517 1517 1518 1518 1518 1517 1517 1517 1516
1516 1514 1512 1511 1510 1508 1507 1505 1504 1502 1500 1499 1498 1497 1497 1496 1496 1496 1497 1499 1500 1501 1502 1504 1505 1507 1508 1509 1510 1510 1511 1512 1512 1512 1513 1513 1513 1514 1514 1514 1514 1514 1514 1514
1520 1519 1516 1514 1511 1508 1506 1504 1502 1500 1497 1495 1494 1492 1491 1491 1490 1490 1491 1492 1493 1494 1495 1497 1499 1500 1502 1503 1504 1505 1506 1506 1507 1507 1508 1508 1509 1509 1510 1510 1510 1510 1510 1511
1520 1518 1516 1514 1511 1508 1505 1502 1500 1498 1495 1492 1490 1488 1486 1486 1485 1485 1485 1485 1485 1485 1487 1490 1492 1493 1494 1496 1497 1499 1499 1500 1501 1502 1502 1503 1504 1504 1505 1505 1506 1506 1506 1507
1520 1518 1515 1513 1511 1508 1504 1501 1498 1495 1492 1489 1487 1484 1482 1480 1480 1479 1478 1478 1478 1478 1480 1482 1484 1485 1487 1489 1490 1491 1492 1493 1494 1495 1496 1497 1498 1499 1499 1500 1501 1501 1502 1502
1519 1516 1514 1512 1509 1507 1504 1500 1497 1493 1490 1487 1484 1481 1479 1477 1475 1473 1472 1471 1472 1473 1474 1475 1476 1477 1479 1481 1482 1483 1485 1486 1487 1488 1489 1490 1491 1492 1493 1494 1495 1496 1496 1497
1517 1515 1513 1510 1508 1505 1502 1499 1496 1493 1489 1486 1482 1479 1476 1473 1470 1468 1467 1466 1466 1467 1467 1467 1468 1469 1471 1473 1474 1475 1477 1478 1480 1481 1482 1483 1485 1486 1487 1488 1489 1489 1490 1491
1515 1513 1511 1508 1506 1503 1501 1498 1495 1491 1488 1485 1481 1478 1474 1472 1469 1465 1462 1460 1459 1459 1459 1460 1461 1462 1463 1464 1465 1467 1469 1470 1472 1473 1475 1476 1477 1479 1480 1481 1482 1483 1484 1484
1513 1511 1509 1507 1504 1501 1498 1495 1493 1490 1487 1484 1481 1477 1473 1469 1465 1463 1460 1457 1454 1453 1452 1452 1453 1454 1455 1456 1457 1459 1460 1462 1464 1465 1467 1468 1470 1471 1472 1473 1474 1475 1477 1478
1510 1508 1506 1504 1501 1499 1496 1493 1491 1488 1484 1481 1478 1475 1472 1468 1465 1460 1457 1453 1450 1448 1446 1445 1446 1447 1447 1448 1449 1451 1453 1454 1456 1457 1459 1460 1462 1463 1464 1466 1467 1468 1469 1470
1507 1505 1504 1502 1500 1497 1494 1492 1488 1485 1482 1478 1475 1472 1469 1465 1462 1458 1454 1451 1448 1445 1442 1440 1439 1439 1440 1441 1442 1443 1445 1447 1448 1449 1451 1452 1454 1455 1456 1458 1459 1460 1461 1463
1503 1502 1500 1498 1496 1494 1492 1489 1486 1483 1480 1477 1473 1470 1466 1463 1459 1456 1452 1449 1445 1442 1440 1437 1436 1435 1434 1435 1435 1437 1438 1439 1440 1441 1443 1444 1445 1447 1448 1450 1451 1452 1454 1455